Flight Track Log - Related Links

Times and Time Zones

All times are in EDT time to prevent confusion due to time zone crossing. See the GLA10Y flight status page for this flight to view local times or setup timezone preferences in your user account.

Time Position Orientation Groundspeed Altitude Reporting Facility
EDT Latitude Longitude Course Direction KTS MPH feet Rate Location/Type
Thu 11:02:43 AM 41.0817 -104.8372 171° South 193 222 10,800  Level Denver Center
Thu 11:03:45 AM 41.0161 -104.8317 176° South 234 269 11,000 96 Climbing Denver Center
Thu 11:04:48 AM 40.9367 -104.8203 174° South 276 318 11,000 48 Level Denver Center
Thu 11:05:50 AM 40.8392 -104.8072 174° South 290 334 11,100  Climbing Denver Center
Thu 11:06:00 AM 40.7217 -104.7638 175° South  Level Estimated
Thu 11:06:52 AM 40.7561 -104.7986 176° South 294 338 11,000  Level Denver Center
Thu 11:07:00 AM 40.6494 -104.7561 175° South  Level Estimated
Thu 11:07:54 AM 40.6717 -104.7800 171° South 299 344 11,000  Level Denver Center
Thu 11:08:56 AM 40.5975 -104.7350 155° Southeast 293 337 11,000  Level Denver Center
Thu 11:09:58 AM 40.5156 -104.6867 156° South 297 342 11,000  Level Denver Center
Thu 11:11:00 AM 40.4386 -104.6400 155° Southeast 300 345 11,000  Level Denver Center
Thu 11:12:02 AM 40.3569 -104.5897 155° Southeast 301 346 11,000  Level Denver Center
Thu 11:13:04 AM 40.2822 -104.5464 156° South 298 343 11,000  Level Denver Center
Thu 11:14:06 AM 40.2050 -104.5217 166° South 289 333 11,000  Level Denver Center
Thu 11:15:08 AM 40.1200 -104.5142 176° South 286 329 11,000  Level Denver Center
Thu 11:15:38 AM 40.0833 -104.5167 183° South 286 329 11,000  Level Denver TRACON
Thu 11:16:38 AM 40.0167 -104.5000 169° South 274 315 11,000  Level Denver TRACON
Thu 11:17:39 AM 39.9333 -104.5000 180° South 263 303 11,000  Level Denver TRACON
Thu 11:18:36 AM 39.8667 -104.4833 169° South 262 302 11,000 -61 Level Denver TRACON
Thu 11:19:17 AM 39.8103 -104.4797 177° South 262 302 10,900 -233 Descending Denver Center
Thu 11:20:19 AM 39.7378 -104.4739 176° South 260 299 10,600 -435 Descending Denver Center
Thu 11:21:21 AM 39.6678 -104.4761 181° South 254 292 10,000 -290 Descending Denver Center
Thu 11:22:23 AM 39.5908 -104.4769 180° South 258 297 10,000  Level Denver Center
Thu 11:23:25 AM 39.5306 -104.4767 180° South 260 299 10,000 -339 Level Denver Center
Thu 11:24:27 AM 39.4586 -104.4989 193° South 232 267 9,300 -484 Descending Denver Center
Thu 11:25:29 AM 39.4556 -104.5672 267° West 197 227 9,000 -145 Descending Denver Center
Thu 11:26:31 AM 39.4747 -104.6264 293° West 198 228 9,000  Level Denver Center
Thu 11:27:33 AM 39.5256 -104.6408 348° North 190 219 9,000  Level Denver Center
Thu 11:28:36 AM 39.5800 -104.6425 359° North 195 224 9,000  Level Denver Center
Thu 11:29:38 AM 39.6397 -104.6442 359° North 196 226 9,000 -435 Level Denver Center
Thu 11:30:40 AM 39.6969 -104.6428 North 202 232 8,100 -1,016 Descending Denver Center
Thu 11:31:42 AM 39.7611 -104.6425 360° North 214 246 6,900 -1,065 Descending Denver Center
Thu 11:32:44 AM 39.8108 -104.6414 North 170 196 5,900 -677 Descending Denver Center
Thu 11:33:46 AM 39.8547 -104.6406 North 153 176 5,500 -387 Descending Denver Center

Login

Don't have an account? Register now (free) for customized features, flight alerts, and more!